Time,TemperatureF,DewpointF,PressureIn,WindDirection,WindDirectionDegrees,WindSpeedMPH,WindSpeedGustMPH,Humidity,HourlyPrecipIn,Conditions,Clouds,dailyrainin,SolarRadiationWatts/m^2,SoftwareType,DateUTC
2013-12-10 00:02:00,31.0,25.0,-100.00,NE,54,2.0,4.0,79,0.00,,,-99.99,0.000000,,2013-12-10 08:02:00,
2013-12-10 00:12:00,31.0,25.0,-100.00,NE,54,2.0,4.0,79,0.00,,,-99.99,0.000000,,2013-12-10 08:12:00,
2013-12-10 00:42:00,29.0,25.0,-100.00,NE,49,2.0,4.0,83,0.00,,,0.00,0.000000,,2013-12-10 08:42:00,
2013-12-10 00:52:00,29.0,25.0,-100.00,NE,49,2.0,4.0,83,0.00,,,0.00,0.000000,,2013-12-10 08:52:00,
2013-12-10 01:02:00,29.0,25.0,-100.00,NE,49,2.0,4.0,83,0.00,,,0.00,0.000000,,2013-12-10 09:02:00,
2013-12-10 01:11:00,29.0,25.0,-100.00,NE,49,2.0,4.0,83,0.00,,,0.00,0.000000,,2013-12-10 09:11:00,
2013-12-10 01:44:00,29.0,25.0,-100.00,ENE,65,2.0,4.0,83,0.00,,,0.00,0.000000,,2013-12-10 09:44:00,
2013-12-10 01:54:00,29.0,25.0,-100.00,ENE,65,2.0,4.0,83,0.00,,,0.00,0.000000,,2013-12-10 09:54:00,
2013-12-10 02:03:00,29.0,25.0,-100.00,ENE,65,2.0,4.0,83,0.00,,,0.00,0.000000,,2013-12-10 10:03:00,
2013-12-10 02:12:00,29.0,25.0,-100.00,ENE,65,2.0,4.0,83,0.00,,,0.00,0.000000,,2013-12-10 10:12:00,
2013-12-10 02:43:00,29.0,25.0,-100.00,NE,47,3.0,4.0,84,0.00,,,0.00,0.000000,,2013-12-10 10:43:00,
2013-12-10 02:53:00,29.0,25.0,-100.00,NE,47,3.0,4.0,84,0.00,,,0.00,0.000000,,2013-12-10 10:53:00,
2013-12-10 03:02:00,29.0,25.0,-100.00,NE,47,3.0,4.0,84,0.00,,,0.00,0.000000,,2013-12-10 11:02:00,
2013-12-10 03:12:00,29.0,25.0,-100.00,NE,47,3.0,4.0,84,0.00,,,0.00,0.000000,,2013-12-10 11:12:00,
2013-12-10 03:43:00,29.0,26.0,-100.00,ENE,69,2.0,5.0,87,0.00,,,0.00,0.000000,,2013-12-10 11:43:00,
2013-12-10 03:53:00,29.0,26.0,-100.00,ENE,69,2.0,5.0,87,0.00,,,0.00,0.000000,,2013-12-10 11:53:00,
2013-12-10 04:02:00,29.0,26.0,-100.00,ENE,69,2.0,5.0,87,0.00,,,0.00,0.000000,,2013-12-10 12:02:00,
2013-12-10 04:12:00,29.0,26.0,-100.00,ENE,69,2.0,5.0,87,0.00,,,0.00,0.000000,,2013-12-10 12:12:00,
2013-12-10 07:44:00,28.0,24.0,-100.00,NE,49,2.0,5.0,86,-99.99,,,-99.99,0.000000,,2013-12-10 15:44:00,
2013-12-10 07:53:00,28.0,24.0,-100.00,NE,49,2.0,5.0,86,-99.99,,,-99.99,0.000000,,2013-12-10 15:53:00,
2013-12-10 08:04:00,28.0,24.0,-100.00,NE,49,2.0,5.0,86,-99.99,,,-99.99,0.000000,,2013-12-10 16:04:00,
2013-12-10 08:12:00,28.0,24.0,-100.00,NE,49,2.0,5.0,86,-99.99,,,-99.99,0.000000,,2013-12-10 16:12:00,
2013-12-10 08:43:00,27.0,24.0,-100.00,NE,48,2.0,4.0,88,0.00,,,0.00,9.000000,,2013-12-10 16:43:00,
2013-12-10 08:52:00,27.0,24.0,-100.00,NE,48,2.0,4.0,88,0.00,,,0.00,9.000000,,2013-12-10 16:52:00,
2013-12-10 09:02:00,27.0,24.0,-100.00,NE,48,2.0,4.0,88,0.00,,,0.00,9.000000,,2013-12-10 17:02:00,
2013-12-10 09:12:00,27.0,24.0,-100.00,NE,48,2.0,4.0,88,0.00,,,0.00,9.000000,,2013-12-10 17:12:00,
2013-12-10 09:43:00,28.0,25.0,-100.00,NE,35,2.0,5.0,87,0.00,,,0.00,64.000000,,2013-12-10 17:43:00,
2013-12-10 09:52:00,28.0,25.0,-100.00,NE,35,2.0,5.0,87,0.00,,,0.00,64.000000,,2013-12-10 17:52:00,
2013-12-10 10:02:00,28.0,25.0,-100.00,NE,35,2.0,5.0,87,0.00,,,0.00,64.000000,,2013-12-10 18:02:00,
2013-12-10 10:11:00,28.0,25.0,-100.00,NE,35,2.0,5.0,87,0.00,,,0.00,64.000000,,2013-12-10 18:11:00,
2013-12-10 10:42:00,33.0,27.0,-100.00,NE,41,3.0,4.0,79,0.00,,,0.00,202.000000,,2013-12-10 18:42:00,
2013-12-10 10:52:00,33.0,27.0,-100.00,NE,41,3.0,4.0,79,0.00,,,0.00,202.000000,,2013-12-10 18:52:00,
2013-12-10 11:02:00,33.0,27.0,-100.00,NE,41,3.0,4.0,79,0.00,,,0.00,202.000000,,2013-12-10 19:02:00,
2013-12-10 11:11:00,33.0,27.0,-100.00,NE,41,3.0,4.0,79,0.00,,,0.00,202.000000,,2013-12-10 19:11:00,
2013-12-10 11:42:00,37.0,28.0,-100.00,NE,34,3.0,4.0,70,0.00,,,0.00,356.000000,,2013-12-10 19:42:00,
2013-12-10 11:52:00,37.0,28.0,-100.00,NE,34,3.0,4.0,70,0.00,,,0.00,356.000000,,2013-12-10 19:52:00,
2013-12-10 12:02:00,37.0,28.0,-100.00,NE,34,3.0,4.0,70,0.00,,,0.00,356.000000,,2013-12-10 20:02:00,
2013-12-10 12:11:00,37.0,28.0,-100.00,NE,34,3.0,4.0,70,0.00,,,0.00,356.000000,,2013-12-10 20:11:00,
2013-12-10 12:42:00,40.0,28.0,-100.00,NNE,22,3.0,5.0,63,0.00,,,0.00,263.000000,,2013-12-10 20:42:00,
2013-12-10 12:52:00,40.0,28.0,-100.00,NNE,22,3.0,5.0,63,0.00,,,0.00,263.000000,,2013-12-10 20:52:00,
2013-12-10 13:01:00,40.0,28.0,-100.00,NNE,22,3.0,5.0,63,0.00,,,0.00,263.000000,,2013-12-10 21:01:00,
2013-12-10 13:12:00,40.0,28.0,-100.00,NNE,22,3.0,5.0,63,0.00,,,0.00,263.000000,,2013-12-10 21:12:00,
2013-12-10 13:13:00,41.0,29.0,-100.00,NNE,30,3.0,6.0,62,0.00,,,0.00,235.000000,,2013-12-10 21:13:00,
2013-12-10 13:43:00,41.0,29.0,-100.00,NNE,30,3.0,6.0,62,0.00,,,0.00,235.000000,,2013-12-10 21:43:00,
2013-12-10 13:54:00,41.0,29.0,-100.00,NNE,30,3.0,6.0,62,0.00,,,0.00,235.000000,,2013-12-10 21:54:00,
2013-12-10 14:04:00,41.0,29.0,-100.00,NNE,30,3.0,6.0,62,0.00,,,0.00,235.000000,,2013-12-10 22:04:00,
2013-12-10 14:43:00,43.0,32.0,-100.00,NE,41,3.0,6.0,64,0.00,,,0.00,256.000000,,2013-12-10 22:43:00,
2013-12-10 14:53:00,43.0,32.0,-100.00,NE,41,3.0,6.0,64,0.00,,,0.00,256.000000,,2013-12-10 22:53:00,
2013-12-10 15:02:00,43.0,32.0,-100.00,NE,41,3.0,6.0,64,0.00,,,0.00,256.000000,,2013-12-10 23:02:00,
2013-12-10 15:12:00,43.0,32.0,-100.00,NE,41,3.0,6.0,64,0.00,,,0.00,256.000000,,2013-12-10 23:12:00,
2013-12-10 15:43:00,44.0,32.0,-100.00,NE,44,3.0,5.0,63,0.00,,,0.00,157.000000,,2013-12-10 23:43:00,
2013-12-10 15:53:00,44.0,32.0,-100.00,NE,44,3.0,5.0,63,0.00,,,0.00,157.000000,,2013-12-10 23:53:00,
2013-12-10 16:02:00,44.0,32.0,-100.00,NE,44,3.0,5.0,63,0.00,,,0.00,157.000000,,2013-12-11 00:02:00,
2013-12-10 16:11:00,44.0,32.0,-100.00,NE,44,3.0,5.0,63,0.00,,,0.00,157.000000,,2013-12-11 00:11:00,
2013-12-10 16:42:00,41.0,33.0,-100.00,NE,35,2.0,4.0,73,0.00,,,0.00,72.000000,,2013-12-11 00:42:00,
2013-12-10 16:52:00,41.0,33.0,-100.00,NE,35,2.0,4.0,73,0.00,,,0.00,72.000000,,2013-12-11 00:52:00,
2013-12-10 17:01:00,41.0,33.0,-100.00,NE,35,2.0,4.0,73,0.00,,,0.00,72.000000,,2013-12-11 01:01:00,
2013-12-10 17:11:00,41.0,33.0,-100.00,NE,35,2.0,4.0,73,0.00,,,0.00,72.000000,,2013-12-11 01:11:00,
2013-12-10 17:42:00,39.0,33.0,-100.00,NE,44,3.0,5.0,79,0.00,,,0.00,8.000000,,2013-12-11 01:42:00,
2013-12-10 17:52:00,39.0,33.0,-100.00,NE,44,3.0,5.0,79,0.00,,,0.00,8.000000,,2013-12-11 01:52:00,
2013-12-10 18:02:00,39.0,33.0,-100.00,NE,44,3.0,5.0,79,0.00,,,0.00,8.000000,,2013-12-11 02:02:00,
2013-12-10 18:11:00,39.0,33.0,-100.00,NE,44,3.0,5.0,79,0.00,,,0.00,8.000000,,2013-12-11 02:11:00,
2013-12-10 18:42:00,38.0,32.0,-100.00,NE,46,3.0,5.0,79,0.00,,,0.00,0.000000,,2013-12-11 02:42:00,
2013-12-10 18:52:00,38.0,32.0,-100.00,NE,46,3.0,5.0,79,0.00,,,0.00,0.000000,,2013-12-11 02:52:00,
2013-12-10 19:02:00,38.0,32.0,-100.00,NE,46,3.0,5.0,79,0.00,,,0.00,0.000000,,2013-12-11 03:02:00,
2013-12-10 19:11:00,38.0,32.0,-100.00,NE,46,3.0,5.0,79,0.00,,,0.00,0.000000,,2013-12-11 03:11:00,
2013-12-10 19:13:00,35.0,31.0,-100.00,NE,54,2.0,4.0,84,0.00,,,0.00,0.000000,,2013-12-11 03:13:00,
2013-12-10 19:43:00,35.0,31.0,-100.00,NE,54,2.0,4.0,84,0.00,,,0.00,0.000000,,2013-12-11 03:43:00,
2013-12-10 19:54:00,35.0,31.0,-100.00,NE,54,2.0,4.0,84,0.00,,,0.00,0.000000,,2013-12-11 03:54:00,
2013-12-10 20:03:00,35.0,31.0,-100.00,NE,54,2.0,4.0,84,0.00,,,0.00,0.000000,,2013-12-11 04:03:00,
2013-12-10 20:43:00,33.0,30.0,-100.00,NE,52,3.0,5.0,88,0.00,,,0.00,0.000000,,2013-12-11 04:43:00,
2013-12-10 20:53:00,33.0,30.0,-100.00,NE,52,3.0,5.0,88,0.00,,,0.00,0.000000,,2013-12-11 04:53:00,
2013-12-10 21:03:00,33.0,30.0,-100.00,NE,52,3.0,5.0,88,0.00,,,0.00,0.000000,,2013-12-11 05:03:00,
2013-12-10 21:12:00,33.0,30.0,-100.00,NE,52,3.0,5.0,88,0.00,,,0.00,0.000000,,2013-12-11 05:12:00,
2013-12-10 21:43:00,32.0,29.0,-100.00,ENE,57,2.0,4.0,89,0.00,,,0.00,0.000000,,2013-12-11 05:43:00,
2013-12-10 21:53:00,32.0,29.0,-100.00,ENE,57,2.0,4.0,89,0.00,,,0.00,0.000000,,2013-12-11 05:53:00,
2013-12-10 22:02:00,32.0,29.0,-100.00,ENE,57,2.0,4.0,89,0.00,,,0.00,0.000000,,2013-12-11 06:02:00,
2013-12-10 22:12:00,32.0,29.0,-100.00,ENE,57,2.0,4.0,89,0.00,,,0.00,0.000000,,2013-12-11 06:12:00,
2013-12-10 22:42:00,32.0,30.0,-100.00,ENE,77,1.0,4.0,93,0.00,,,0.00,0.000000,,2013-12-11 06:42:00,
2013-12-10 22:52:00,32.0,30.0,-100.00,ENE,77,1.0,4.0,93,0.00,,,0.00,0.000000,,2013-12-11 06:52:00,
2013-12-10 23:02:00,32.0,30.0,-100.00,ENE,77,1.0,4.0,93,0.00,,,0.00,0.000000,,2013-12-11 07:02:00,
2013-12-10 23:11:00,32.0,30.0,-100.00,ENE,77,1.0,4.0,93,0.00,,,0.00,0.000000,,2013-12-11 07:11:00,
2013-12-10 23:43:00,31.0,29.0,-100.00,ENE,77,2.0,4.0,94,0.00,,,0.00,0.000000,,2013-12-11 07:43:00,
2013-12-10 23:52:00,31.0,29.0,-100.00,ENE,77,2.0,4.0,94,0.00,,,0.00,0.000000,,2013-12-11 07:52:00,